Regional Weather Roundup
Issued by NWS

Home | Current Version | Previous Version | Graphics & Text | Print | Product List | Glossary On
Versions: 1 2 3 4 5 6 7 8 9 10 11 12 13 14 15 16 17 18 19 20 21 22 23 24 25 26 27 28 29 30 31 32 33 34 35 36 37 38 39 40 41 42 43 44 45 46 47 48 49 50
000
ASUS43 KFSD 281110
RWRSD

WEATHER ROUNDUP FOR SOUTH DAKOTA
NATIONAL WEATHER SERVICE SIOUX FALLS SD
600 AM CDT FRI JUL 28 2017

NOTE: "FAIR" INDICATES FEW OR NO CLOUDS BELOW 12,000 FEET WITH NO
SIGNIFICANT WEATHER AND/OR OBSTRUCTIONS TO VISIBILITY.


SDZ001>005-009-010-012>017-281200-
NORTHWEST AND NORTH CENTRAL SOUTH DAKOTA

CITY           SKY/WX    TMP DP  RH WIND       PRES   REMARKS
BUFFALO          N/A     60  56  86 SE8       29.97R
FAITH            N/A     65  60  84 SE12      30.02F
MOBRIDGE       CLOUDY    71  63  75 SE12      30.02S
$$

SDZ012>016-024>037-041>051-057-063-072>074-281200-
SOUTHWEST AND SOUTH CENTRAL SOUTH DAKOTA

CITY           SKY/WX    TMP DP  RH WIND       PRES   REMARKS
RAPID CTY ARPT CLOUDY    59  56  89 S8        30.04R
PIERRE         CLOUDY    69  60  73 E8        30.03F
CUSTER         CLOUDY    56  53  90 W3        30.14R
ELLSWORTH AFB  CLOUDY    61  58  91 SW6       30.03R
PHILIP         CLEAR     63  61  93 E7        30.01F
PINE RIDGE     CLOUDY    61  60  97 S6        30.06F
SPEARFISH      FAIR      61  57  88 W8        30.07R
WINNER         CLOUDY    69  62  78 E6        30.07S
$$

SDZ004>011-016>023-039-040-281200-
NORTHEAST SOUTH DAKOTA

CITY           SKY/WX    TMP DP  RH WIND       PRES   REMARKS
ABERDEEN       CLOUDY    66  63  90 SE3       30.08S
WATERTOWN      CLOUDY    66  59  78 CALM      30.09S
BROOKINGS      CLOUDY    64  62  93 CALM      30.10S
SISSETON         N/A     61  59  93 CALM      30.08R
$$

SDZ017-020-022-023-036>040-048>070-281200-
SOUTHEAST SOUTH DAKOTA

CITY           SKY/WX    TMP DP  RH WIND       PRES   REMARKS
SIOUX FALLS    CLOUDY    62  61  96 NE3       30.09R
HURON          CLOUDY    66  63  90 SE3       30.07F
CHAMBERLAIN    CLOUDY    69  66  91 S5        30.07S
MITCHELL       CLOUDY    66  64  93 CALM      30.08R
YANKTON        PTCLDY    63  61  93 NE5       30.07S
$$

ABBREVIATIONS USED IN REMARKS
   TC - TEMPERATURE IN CELSIUS
  WCI - WIND CHILL INDEX
   HX - HEAT INDEX
  VSB - VISIBILITY




USA.gov is the U.S. government's official web portal to all federal, state and local government web resources and services.